Regional Weather Roundup
Issued by NWS

Home | Current Version | Previous Version | Graphics & Text | Print | Product List | Glossary On
Versions: 1 2 3 4 5 6 7 8 9 10 11 12 13 14 15 16 17 18 19 20 21 22 23 24 25 26 27 28 29 30 31 32 33 34 35 36 37 38 39 40 41 42 43 44 45 46 47 48 49 50
000
ASUS45 KPSR 250110
RWRAZ

ARIZONA REGIONAL HOURLY WEATHER ROUNDUP
NATIONAL WEATHER SERVICE PHOENIX AZ
600 PM MST SAT JAN 24 2015

NOTE: FAIR INDICATES FEW OR NO CLOUDS BELOW 12,000 FEET WITH NO
SIGNIFICANT WEATHER AND/OR OBSTRUCTIONS TO VISIBILITY.

AZZ001>003-036-250200-
NORTHWEST ARIZONA

CITY           SKY/WX    TMP DP  RH WIND       PRES   REMARKS
BULLHEAD CITY  CLEAR     68  23  18 N22G29    30.11S
KINGMAN        CLEAR     54  18  24 NE13      30.19R
$$

AZZ004>008-015-016-018-250200-
NORTH CENTRAL ARIZONA

CITY           SKY/WX    TMP DP  RH WIND       PRES   REMARKS
GRAND CANYON   PTCLDY    38  13  35 NE6       30.30R WCI  33
PRESCOTT       PTCLDY    52  11  19 CALM      30.18S
FLAGSTAFF      PTCLDY    37  11  34 CALM      30.27S
PAYSON         FAIR      50  14  23 N8        30.20R
$$

AZZ009>014-017-250200-
NORTHEAST ARIZONA

CITY           SKY/WX    TMP DP  RH WIND       PRES   REMARKS
WINSLOW        PTCLDY    40  19  43 NW5       30.26S
SAINT JOHNS    PTCLDY    41  18  39 W5        30.23R
WINDOW ROCK    PTCLDY    43  20  39 NW6       30.25R
SHOW LOW       PTCLDY    36  16  44 N7        30.28R WCI  30
$$

AZZ023-250200-
GREATER PHOENIX AREA

CITY           SKY/WX    TMP DP  RH WIND       PRES   REMARKS
PHOENIX        PTCLDY    74  14  10 CALM      30.00F
BUCKEYE          N/A     66  23  19 E6        30.03S
GLENDALE       PTCLDY    72  18  13 VRB5      30.03S
LUKE AFB       NOT AVBL
DEER VALLEY    PTCLDY    68   9  10 S3        30.01F
SCOTTSDALE     PTCLDY    71  14  11 CALM      30.04S
MESA-FALCON    PTCLDY    70  14  11 VRB5      30.02S
MESA-GATEWAY   PTCLDY    68  21  17 E5        30.04R
CHANDLER       PTCLDY    70  16  12 CALM      30.02S
$$

AZZ027-028-250200-
SOUTHWEST MARICOPA COUNTY AND PINAL COUNTY

CITY           SKY/WX    TMP DP  RH WIND       PRES   REMARKS
CASA GRANDE    PTCLDY    64  10  12 NE6       30.03R
GILA BEND      FAIR      68  16  13 SE2       30.00S
$$

AZZ503-504-507>509-250200-
SOUTHEAST ARIZONA

CITY           SKY/WX    TMP DP  RH WIND       PRES   REMARKS
TUCSON         PTCLDY    65  10  11 E10       30.07S
DAVIS-MONTHAN  PTCLDY    64  11  12 E5        30.05S
RYAN FIELD       N/A     64  16  15 E8        30.06S
NOGALES        MOCLDY    60   8  12 NE8       30.07R
SIERRA VISTA   MOCLDY    51  12  21 N7        30.14R
DOUGLAS        MOCLDY    52  14  22 E13G18    30.14R
SAFFORD        MOCLDY    55  13  18 SE5       30.12F
$$

AZZ020-021-025-026-031-250200-
SOUTHWEST ARIZONA

CITY           SKY/WX    TMP DP  RH WIND       PRES   REMARKS
YUMA           CLEAR     72  19  13 N7        30.01S
$$

CAZ031-033-041-043-047-048-061-250200-
SOUTHERN CALIFORNIA

CITY           SKY/WX    TMP DP  RH WIND       PRES   REMARKS
DOWNTOWN L.A.  CLEAR     75  29  18 CALM      29.98F
L.A. AIRPORT   CLEAR     70  40  33 W5        29.99S
SAN DIEGO      PTCLDY    72  41  32 CALM      29.97R
BURBANK        CLEAR     75  28  17 SW3       30.00S
ONTARIO        PTCLDY    73  19  13 NE18G31   30.01S
RIVERSIDE      PTCLDY    73  19  13 NE8G21    30.03S
PALM SPRINGS   PTCLDY    74  19  12 W8        30.08S
EL CENTRO NAS  PTCLDY    71  26  18 CALM      30.03F
IMPERIAL       PTCLDY    72  25  17 NW6       30.03S
BLYTHE         PTCLDY    72  17  12 N14       30.04S
NEEDLES        CLEAR     68  18  14 N18G28    30.10F
$$

NVZ020-UTZ003-250200-
SOUTHERN NEVADA-UTAH

CITY           SKY/WX    TMP DP  RH WIND       PRES   REMARKS
LAS VEGAS      PTCLDY    64  19  17 SE3       30.16F
SALT LAKE CITY CLOUDY    37  28  70 N6        30.45R WCI  32
$$

NMZ009-TXZ055-250200-
NEW MEXICO-WEST TEXAS

CITY           SKY/WX    TMP DP  RH WIND       PRES   REMARKS
ALBUQUERQUE    PTCLDY    46  19  34 N7        30.21R
EL PASO        MOCLDY    48  24  39 N3        30.19S
$$


........................KEY........................
SKY/WX - SKY CONDITION/WEATHER
TMP    - TEMPERATURE IN FAHRENHEIT
DP     - DEW POINT IN FAHRENHEIT
RH     - RELATIVE HUMIDITY IN PERCENT
WIND   - DIRECTION AND SPEED IN MILES PER HOUR (MPH)
VRB    - VARIABLE WIND DIRECTION
PRES   - MEAN SEA LEVEL PRESSURE IN INCHES OF MERCURY
         F - FALLING PRESSURE   R - RISING PRESSURE
         S - STEADY PRESSURE
VSB    - VISIBILITY IN MILES
HX     - HEAT INDEX IN FAHRENHEIT
WCI    - WIND CHILL INDEX IN FAHRENHEIT
TC     - TEMPERATURE IN CELSIUS WHICH IS ALSO KNOWN AS
         TEMPERATURE IN CENTIGRADE
AFB    - AIR FORCE BASE
         LUKE AFB IS LUKE AIR FORCE BASE
         DAVIS-MONTHAN IS DAVIS-MONTHAN AIR FORCE BASE
NAS    - NAVAL AIR STATION
         EL CENTRO NAS IS EL CENTRO NAVAL AIR STATION
N/A    - NOT AVAILABLE



USA.gov is the U.S. government's official web portal to all federal, state and local government web resources and services.